TimeEST,TemperatureF,Dew PointF,Humidity,Sea Level PressureIn,VisibilityMPH,Wind Direction,Wind SpeedMPH,Gust SpeedMPH,PrecipitationIn,Events,Conditions,WindDirDegrees,DateUTC
12:00 AM,69.8,60.8,73,29.95,6.2,NNW,6.9,-,N/A,,Mostly Cloudy,330,2013-03-02 05:00:00
1:00 AM,67,61,77,29.94,8,North,5.8,,,,Mostly Cloudy,0,2013-03-02 06:00:00
1:00 AM,68.0,60.8,78,29.94,6.2,North,5.8,-,N/A,,Mostly Cloudy,360,2013-03-02 06:00:00
2:00 AM,66.2,60.8,83,29.93,6.2,NNW,3.5,-,N/A,,Mostly Cloudy,330,2013-03-02 07:00:00
3:00 AM,66.2,60.8,83,29.91,6.2,Calm,Calm,-,N/A,,Mostly Cloudy,0,2013-03-02 08:00:00
4:00 AM,65,62,85,29.92,8,NW,2.3,,,,Overcast,310,2013-03-02 09:00:00
4:00 AM,66.2,60.8,83,29.91,6.2,NW,2.3,-,N/A,Rain,Light Rain,310,2013-03-02 09:00:00
5:00 AM,64.4,60.8,88,29.91,6.2,North,4.6,-,N/A,Rain,Light Rain,360,2013-03-02 10:00:00
6:00 AM,64.4,59.0,83,29.92,6.2,NNW,5.8,-,N/A,Rain,Light Rain,340,2013-03-02 11:00:00
7:00 AM,64.4,60.8,88,29.97,6.2,NNW,5.8,-,N/A,Rain,Light Rain,340,2013-03-02 12:00:00
8:00 AM,62.6,57.2,82,29.96,5.6,NNW,9.2,20.7,N/A,Rain,Light Rain,330,2013-03-02 13:00:00
9:00 AM,62.6,55.4,77,29.97,5.6,NNW,13.8,-,N/A,Rain,Light Rain,330,2013-03-02 14:00:00
10:00 AM,64,58,73,29.98,6,NNW,9.2,,,Rain,Light Rain,330,2013-03-02 15:00:00
10:00 AM,64.4,57.2,77,29.98,5.6,NNW,9.2,-,N/A,Rain,Light Rain,330,2013-03-02 15:00:00
11:00 AM,64.4,53.6,68,29.98,6.2,NNW,9.2,-,N/A,Rain,Light Rain,330,2013-03-02 16:00:00
12:00 PM,64.4,53.6,68,29.97,6.2,NNW,11.5,-,N/A,Rain,Light Rain,330,2013-03-02 17:00:00
1:00 PM,66,54,55,29.95,7,NNW,11.5,,,Rain,Light Rain,330,2013-03-02 18:00:00
1:00 PM,66.2,53.6,64,29.95,6.2,NNW,11.5,25.3,N/A,Rain,Light Rain,330,2013-03-02 18:00:00
2:00 PM,62.6,55.4,77,29.94,2.8,NNW,9.2,-,N/A,Rain,Rain,330,2013-03-02 19:00:00
3:00 PM,60.8,46.4,59,29.95,-9999.0,North,-9999.0,-,N/A,Rain,Light Rain,0,2013-03-02 20:00:00
4:00 PM,61,47,50,29.96,7,WNW,9.2,,,,Overcast,300,2013-03-02 21:00:00
4:00 PM,60.8,46.4,59,29.96,-9999.0,North,-9999.0,-,N/A,Rain,Light Rain,0,2013-03-02 21:00:00
5:00 PM,60.8,51.8,72,29.96,-9999.0,North,-9999.0,-,N/A,Rain,Light Rain,0,2013-03-02 22:00:00
6:00 PM,62.6,51.8,68,29.96,-9999.0,North,-9999.0,-,N/A,Rain,Light Rain,0,2013-03-02 23:00:00
7:00 PM,62,53,63,29.97,6,North,11.5,,,Rain,Light Rain,350,2013-03-03 00:00:00
7:00 PM,62.6,51.8,68,29.97,5.6,North,11.5,-,N/A,Rain,Light Rain,350,2013-03-03 00:00:00
8:00 PM,60.8,51.8,72,29.98,5.6,North,11.5,-,N/A,Rain,Rain,350,2013-03-03 01:00:00
9:00 PM,62.6,51.8,68,29.99,5.6,North,8.1,-,N/A,Rain,Rain,360,2013-03-03 02:00:00
10:00 PM,81,52,26,29.98,6,WNW,11.5,,,Rain,Light Rain,290,2013-03-03 03:00:00
10:00 PM,62.6,51.8,68,29.97,5.6,WNW,11.5,-,N/A,Rain,Light Rain,290,2013-03-03 03:00:00
11:00 PM,66.2,48.2,52,30.01,6.2,WNW,11.5,-,N/A,,Overcast,290,2013-03-03 04:00:00